Regional Weather Roundup
Issued by NWS

Home | Current Version | Previous Version | Text Only | Print | Product List | Glossary Off
Versions: 1 2 3 4 5 6 7 8 9 10 11 12 13 14 15 16 17 18 19 20 21 22 23 24 25 26 27 28 29 30 31 32 33 34 35 36 37 38 39 40 41 42 43 44 45 46 47 48 49 50

000
ASUS45 KBOU 281907
RWRCO

WEATHER ROUNDUP FOR COLORADO
NATIONAL WEATHER SERVICE DENVER/BOULDER CO
100 PM MDT FRI APR 28 2017

NOTE: "FAIR" INDICATES FEW OR NO CLOUDS BELOW 12000 FEET WITH NO
SIGNIFICANT WEATHER AND/OR OBSTRUCTIONS TO VISIBILITY.

COZ001>005-013-030-031-282000-
...NORTHWEST COLORADO...

CITY           SKY/WX    TMP DP  RH WIND       PRES   REMARKS
CRAIG          PTSUNNY   40  17  39 VRB5      29.75S
HAYDEN         FAIR      37  19  48 W10       29.75S
MEEKER         FAIR      41  26  55 NW9       29.75S
MOUNT WERNER   NOT AVBL
STEAMBOAT SPGS CLOUDY    33  24  70 W9        29.75R WCI  25
WALDEN           N/A     36  14  41 SW7       29.73S
$$

COZ006>008-011-282000-
...WEST CENTRAL VALLEYS...

CITY           SKY/WX    TMP DP  RH WIND       PRES   REMARKS
GRAND JUNCTION FAIR      51  13  21 W12       29.73F
MONTROSE       CLOUDY    43  16  33 W15       29.76R
EAGLE          PTSUNNY   39  18  41 SW10      29.74F
RIFLE          FAIR      48  21  34 NW10G18   29.73F
DELTA          FAIR      52   5  14 SW13G21   29.72S
NUCLA          CLOUDY    43  12  28 NW10G17   29.77S
$$

COZ017>023-064>068-282000-
...SOUTHWEST COLORADO...

CITY           SKY/WX    TMP DP  RH WIND       PRES   REMARKS
DURANGO        PTSUNNY   40  27  59 SW18      29.72F
CORTEZ         PTSUNNY   47  17  30 W8        29.72F
PAGOSA SPRINGS PTSUNNY   42  18  38 S12G18    29.70F
TELLURIDE      CLOUDY    33   6  32 W14       29.72F WCI  23
WOLF CREEK PAS SNOW      18  16  93 SW9       29.75F VSB 1/2 WCI   6
$$

COZ009-010-012-014-032>034-037-058>063-282000-
...CENTRAL COLORADO...

CITY           SKY/WX    TMP DP  RH WIND       PRES   REMARKS
ASPEN          CLOUDY    34  26  72 N9        29.72S WCI  27
BUENA VISTA    PTSUNNY   40  11  29 NW6G16    29.68F
COPPER MTN     LGT SNOW  19  12  73 CALM      29.72R VSB 1
BERTHOUD PASS  CLOUDY    12   1  62 N5        29.72R WCI   4
COTTONWOOD PAS PTSUNNY   37  18  44 NW5       29.69F
GUNNISON       PTSUNNY   38  11  32 NW13G21   29.69F
KREMMLING      PTSUNNY   45  18  33 NW5       29.73F
LEADVILLE      CLOUDY    26  10  50 N6        29.69S WCI  19
SALIDA         FAIR      46   1  15 NW8G17    29.72F
SUNLIGHT       LGT SNOW  19  14  79 NW7       29.77R WCI  10
WILKERSON PASS PTSUNNY   28   1  31 S3        29.74S
$$

COZ069>075-282000-
...SAN LUIS VALLEY/SANGRE DE CRISTO MOUNTAINS...

CITY           SKY/WX    TMP DP  RH WIND       PRES   REMARKS
ALAMOSA        FAIR      45  17  32 S10G23    29.65F
LA VETA PASS   FAIR      34  14  44 S10G20    29.82F WCI  26
SAGUACHE       CLOUDY    41  10  28 W6        29.67S
$$

COZ035-036-038>040-282000-
...NORTHERN COLORADO FRONT RANGE...

CITY           SKY/WX    TMP DP  RH WIND       PRES   REMARKS
DENVER INTL AP PTSUNNY   54  20  26 E18G26    29.67S
DMNS CITY PARK   N/A     53  19  26 NE20      29.66S
AURORA         PTSUNNY   51  17  26 NE8G22    29.67S
FRONT RANGE AP PTSUNNY   54  19  26 E17G29    29.68S
ERIE MUNI ARPT PTSUNNY   51  18  27 E15G23    29.67R
BOULDER MUN AP CLOUDY    45  23  42 W20G26    29.68R
CENTENNIAL     PTSUNNY   51  11  20 VRB6G18   29.66S
BROOMFIELD     PTSUNNY   50  16  25 E20       29.68R
FORT COLLINS   FAIR      47  22  37 SW9       29.69R
LONGMONT       FAIR      53  24  32 NW15G21   29.71R
$$

COZ041-046-047-076>085-087-088-282000-
...PIKES PEAK/PALMER DIVIDE AND SOUTHERN FOOTHILLS...

CITY           SKY/WX    TMP DP  RH WIND       PRES   REMARKS
COLO. SPRINGS  PTSUNNY   52   7  16 E14G23    29.65F
A. F. ACADEMY  PTSUNNY   48   9  20 N13       29.64F
SCHRIEVER AFB  PTSUNNY   52  10  19 S16G22    29.66
ELLICOTT       FAIR     N/A N/A N/A SE6       29.66S
FALCON         FAIR      49   7  18 S10G20    29.68R
FORT CARSON    FAIR      52  11  20 E9        29.64S
LIMON          PTSUNNY   53  28  38 NE14G25   29.68S
MONUMENT HILL  FAIR      43  12  28 SE5       29.69S
TRINIDAD       CLOUDY    52  21  29 VRB5      29.65F
$$

COZ042>045-048>051-090-091-282000-
...NORTHEAST COLORADO...

CITY           SKY/WX    TMP DP  RH WIND       PRES   REMARKS
GREELEY ARPT   PTSUNNY   53  30  41 NE16G23   29.70R
AKRON          CLOUDY    46  33  60 NE15      29.72R
BURLINGTON     NOT AVBL
WRAY           NOT AVBL
STERLING       CLOUDY    41  36  81 E14G24    29.76R
HOLYOKE        CLOUDY    37  36  93 E18       29.81R
FORT MORGAN    CLOUDY    44  34  68 NE18      29.72R
$$

COZ086-089-092>099-282000-
...SOUTHEAST COLORADO...

CITY           SKY/WX    TMP DP  RH WIND       PRES   REMARKS
PUEBLO         FAIR      56  18  22 SE14G21   29.63F
LA JUNTA       FAIR      58  23  26 NE6       29.66S
LAMAR          FAIR      60  31  33 CALM      29.64F
SPRINGFIELD      N/A     52  33  48 S15G31    29.70R
$$



USA.gov is the U.S. government's official web portal to all federal, state and local government web resources and services.